Weather History for KBWG - May, 2012

Change the Weather History Date:

Thursday, May 17, 2012

  Actual Average Record
Temperature  
Mean Temperature 71 °F 67 °F  
Max Temperature 82 °F 78 °F 94 °F (1931)
Min Temperature 59 °F 55 °F 40 °F (1973)
Degree Days  
Heating Degree Days 0 2  
Month to date heating degree days 5 55  
Since 1 July heating degree days 2955 4024  
Cooling Degree Days 6 4  
Month to date cooling degree days 107 45  
Year to date cooling degree days 236 81  
Growing Degree Days 20 (Base 50)    
Moisture  
Dew Point 60 °F    
Average Humidity 69    
Maximum Humidity 90    
Minimum Humidity 47    
Precipitation  
Precipitation 0.00 in 0.18 in 2.48 in (1980)
Month to date precipitation 2.95 3.18  
Year to date precipitation 17.21 19.50  
Snow  
Snow 0.00 in 0.00 in 0.00 in ()
Month to date snowfall 0.0 0.0  
Since 1 July snowfall 1.4 9.1  
Snow Depth 0.00 in    
Sea Level Pressure  
Sea Level Pressure 30.00 in    
Wind  
Wind Speed 6 mph (NE)    
Max Wind Speed 13 mph    
Max Gust Speed 17 mph    
Visibility 10 miles    
Events      
T = Trace of Precipitation, MM = Missing Value Source: NWS Daily Summary

Daily Weather History Graph

Daily Weather History Graph

Search for Another Location

Airport or City:

Trip Planner

Search our weather history database for the weather conditions in past years. The results will help you decide how hot, cold, wet, or windy it might be!

Date:

Astronomy

May. 17, 2012 Rise Set
Actual Time 5:35 AM CDT 7:48 PM CDT
Civil Twilight 5:06 AM CDT 8:18 PM CDT
Nautical Twilight 4:30 AM CDT 8:54 PM CDT
Astronomical Twilight 3:51 AM CDT 9:33 PM CDT
Moon 3:30 AM CDT (5/17) 5:03 PM CDT (5/17)
Length of Visible Light 15h 11m
Length of Day
14h 13m
Waning Crescent, 9% of the Moon is Illuminated
May 17
Waning Crescent
May 20
New
May 28
First Quarter
Jun 4
Full
Jun 11
Last Quarter

Hourly Weather History & Observations

Time (CDT) Temp. Heat Index Dew Point Humidity Pressure Visibility Wind Dir Wind Speed Gust Speed Precip Events Conditions
12:53 AM 63.0 °F - 57.0 °F 81% 29.96 in 10.0 mi Calm Calm - N/A   Partly Cloudy
1:53 AM 63.0 °F - 57.9 °F 84% 29.96 in 10.0 mi Calm Calm - N/A   Clear
2:53 AM 61.0 °F - 57.0 °F 87% 29.96 in 10.0 mi Calm Calm - N/A   Partly Cloudy
3:53 AM 62.1 °F - 57.9 °F 86% 29.97 in 10.0 mi Calm Calm - N/A   Mostly Cloudy
4:53 AM 60.1 °F - 57.0 °F 90% 29.98 in 8.0 mi Calm Calm - N/A   Clear
5:53 AM 59.0 °F - 55.9 °F 90% 29.99 in 7.0 mi Calm Calm - N/A   Clear
6:53 AM 64.0 °F - 59.0 °F 84% 30.01 in 7.0 mi NE 4.6 mph - N/A   Scattered Clouds
7:53 AM 66.0 °F - 60.1 °F 81% 30.03 in 8.0 mi ENE 10.4 mph - N/A   Scattered Clouds
8:53 AM 69.1 °F - 61.0 °F 75% 30.04 in 10.0 mi NE 10.4 mph - N/A   Partly Cloudy
9:53 AM 72.0 °F - 62.1 °F 71% 30.03 in 10.0 mi ENE 8.1 mph - N/A   Clear
10:53 AM 75.0 °F - 63.0 °F 66% 30.03 in 10.0 mi NNE 9.2 mph - N/A   Clear
11:53 AM 75.9 °F - 63.0 °F 64% 30.03 in 10.0 mi ENE 6.9 mph - N/A   Clear
12:53 PM 80.1 °F 81.7 °F 64.0 °F 58% 30.01 in 10.0 mi Variable 6.9 mph - N/A   Clear
1:53 PM 81.0 °F 82.2 °F 63.0 °F 54% 30.00 in 10.0 mi NE 9.2 mph - N/A   Partly Cloudy
2:53 PM 82.0 °F 83.1 °F 63.0 °F 52% 29.99 in 10.0 mi NE 9.2 mph - N/A   Partly Cloudy
3:53 PM 82.0 °F 83.0 °F 62.1 °F 51% 29.97 in 10.0 mi NE 9.2 mph - N/A   Clear
4:53 PM 82.0 °F 82.7 °F 61.0 °F 49% 29.97 in 10.0 mi NE 6.9 mph - N/A   Partly Cloudy
5:53 PM 78.1 °F - 61.0 °F 56% 29.96 in 10.0 mi ENE 8.1 mph - N/A   Partly Cloudy
6:53 PM 77.0 °F - 61.0 °F 58% 29.97 in 10.0 mi NE 9.2 mph - N/A   Partly Cloudy
7:53 PM 73.0 °F - 60.1 °F 64% 29.99 in 10.0 mi NE 6.9 mph - N/A   Clear
8:53 PM 70.0 °F - 60.1 °F 71% 30.01 in 10.0 mi ENE 5.8 mph - N/A   Clear
9:53 PM 69.1 °F - 59.0 °F 70% 30.02 in 10.0 mi ENE 6.9 mph - N/A   Clear
10:53 PM 66.9 °F - 57.9 °F 73% 30.01 in 10.0 mi NE 4.6 mph - N/A   Clear
11:53 PM 66.0 °F - 57.0 °F 73% 30.01 in 10.0 mi Calm Calm - N/A   Clear